Powrót do katalogu

BLOCK DM-SL R/B

AktywnyHEO
NORAD 25938·ROCKET BODY· XX

Wystrzelony Oct 10, 1999 z Sea Launch Platform

Loading…

Następne Przeloty (najbliższe 24 godziny)

TLE

ŚwieżeSource: Space-Track

Epoka: Sep 14, 2026, 09:17 UTC

1 25938U 99056B   26257.38733828 -.00000108  00000-0  00000-0 0  9990
2 25938   0.9118 348.9708 6465538 124.9086 324.1396  2.12161840208704

Śledź BLOCK DM-SL R/B w czasie rzeczywistym z AllMySat

Download on the App Store